Location: Aalen
(48.8330°N, 10.1000°E)
Time: 06:18:25
(UTC+01:00)

BlueWalker 3 - Pass Details

Date: 04 December 2022
Orbit: 499 x 517 km, 53.2° (Epoch: 28 January)

Event Time Altitude Azimuth Distance (km) Brightness Sun altitude
Rises 17:56:08 0° 286° (WNW) 2,633 6.6 -14.4°
Reaches altitude 10° 17:58:25 10° 292° (WNW) 1,742 5.4 -14.8°
Maximum altitude 18:02:12 44° 6° (N) 714 2.5 -15.4°
Enters shadow 18:03:39 30° 58° (ENE) 936 2.7 -15.6°
